Wetbulb
67.99 69.33 69.82 69.60 69.94 70.47 71.34 72.06 72.30 72.94 74.15 74.30 74.26 74.64 75.74 77.37 76.78 74.91 74.41 75.75 76.05 71.87 73.11 74.05 78.99 77.41 77.69 77.64 77.85 77.90 77.89 76.54 76.02
67.11 68.26 69.88 70.14 70.88 71.01 71.85 71.79 73.24 73.99 74.88 75.32 75.04 74.75 76.84 76.77 77.28 77.10 75.82 78.49 76.82 75.83 77.57 73.25 77.50 76.90 76.86 77.37 77.97 78.04 78.05 76.10 76.14
66.19 68.50 69.32 70.57 71.38 71.92 72.11 72.57 72.83 73.96 74.92 75.89 75.83 75.53 75.70 75.83 77.68 76.90 76.80 76.31 76.66 76.96 76.42 77.09 75.69 76.78 76.98 76.71 77.36 77.53 78.04 77.42 77.46
64.79 66.08 67.09 68.98 70.88 72.65 72.73 73.07 73.13 74.13 74.35 74.73 75.37 75.54 76.79 77.06 76.52 76.28 76.72 75.61 76.02 76.37 76.97 76.78 76.75 76.94 76.49 76.46 76.74 77.27 77.20 78.18 76.66
65.87 67.91 67.77 69.70 70.73 71.69 72.51 73.36 73.72 74.76 75.64 75.26 75.70 76.59 77.56 75.85 76.55 76.55 75.62 75.78 75.80 76.68 76.77 77.09 76.88 76.82 76.68 77.32 76.23 77.19 76.82 76.25 74.73
66.97 67.74 68.23 69.19 70.67 72.14 72.10 73.06 75.70 74.30 74.47 75.12 75.05 76.74 75.42 75.53 75.90 75.91 75.75 75.83 76.30 76.48 77.31 76.60 76.56 77.15 76.97 76.41 76.46 76.46 76.43 76.43 76.18
66.59 67.13 67.83 69.46 70.63 71.60 73.14 73.38 75.41 75.03 75.27 75.86 75.60 76.88 76.37 77.50 77.28 77.56 76.07 77.48 77.93 76.84 77.99 77.70 77.02 77.88 76.97 76.68 76.43 76.27 76.11 76.71 76.26
65.69 66.40 67.45 69.25 70.18 71.47 72.64 73.50 74.00 74.02 74.19 73.61 77.19 77.03 77.94 77.45 76.62 78.88 78.76 78.54 78.63 78.35 77.98 77.73 77.18 76.85 76.78 76.37 76.11 75.33 77.24 76.11 75.95
64.50 66.13 67.50 69.24 70.30 70.68 71.14 71.89 73.18 73.46 73.38 73.73 73.16 75.10 74.05 77.96 75.80 78.16 78.55 78.55 77.98 77.88 78.27 78.03 78.14 76.29 76.40 76.40 74.66 66.19 67.80 70.84 75.14
64.83 66.30 67.68 68.66 69.80 69.80 71.18 71.92 72.53 73.10 74.12 75.45 73.85 72.34 73.79 74.86 77.07 75.46 76.60 77.64 77.48 77.38 76.87 76.92 76.48 77.00 76.11 75.76 75.92 64.86 65.98 66.37 73.60
65.55 66.69 68.16 69.00 69.96 69.64 70.62 71.58 72.75 73.24 73.48 73.86 73.26 74.17 74.14 74.74 73.77 71.82 74.41 76.00 75.92 76.55 76.61 76.88 77.60 76.26 75.98 76.09 68.02 62.21 63.18 65.70 74.15
67.16 68.65 68.83 69.29 69.29 69.26 70.98 71.47 71.97 71.20 71.69 71.88 71.71 71.95 72.28 72.49 74.28 70.92 72.12 73.76 73.91 74.62 73.59 73.29 73.77 73.81 74.14 73.46 68.25 59.05 60.28 66.66 74.47
67.58 68.51 68.60 68.17 68.20 68.32 68.49 69.28 70.67 69.21 69.21 69.89 68.53 68.23 69.49 70.26 71.79 70.60 72.59 73.10 72.49 71.32 68.94 66.80 65.92 64.71 65.50 63.38 65.98 57.98 58.86 65.08 74.43
66.60 66.99 67.63 68.12 67.87 67.49 68.30 66.90 65.59 64.34 64.45 64.46 66.20 67.84 67.93 68.13 69.31 69.91 71.29 70.74 67.91 65.17 63.52 62.99 60.79 60.36 60.27 61.06 58.72 60.59 57.13 58.48 69.17
65.82 66.77 66.67 67.68 67.29 67.10 67.05 67.74 66.24 64.52 64.23 65.38 65.45 63.90 64.11 64.67 67.73 67.55 66.48 66.04 62.66 62.37 60.61 58.98 57.94 57.78 57.45 57.45 56.53 55.10 54.42 55.26 58.32
65.76 65.95 65.92 66.60 67.08 67.56 68.15 67.54 67.06 64.12 65.14 66.18 64.85 63.95 62.15 62.19 62.21 61.83 61.55 60.81 59.91 59.61 59.54 58.90 59.08 58.92 57.82 57.13 57.15 55.82 53.81 54.56 55.83
64.84 65.39 65.93 65.90 65.12 65.08 66.48 67.18 67.25 64.62 63.77 63.66 63.47 62.64 62.13 62.72 61.45 61.17 61.51 61.21 60.93 59.91 59.56 60.09 59.93 59.88 59.20 58.70 58.82 58.14 57.55 56.79 56.65
63.74 62.57 63.77 63.40 63.17 62.90 63.81 65.62 66.90 66.54 65.72 65.05 61.76 61.60 62.22 62.52 59.78 57.69 54.88 51.84 52.48 58.18 54.68 55.33 61.79 62.60 62.79 61.24 58.27 53.49 50.21 54.00 61.13
62.38 64.09 64.24 63.09 63.69 63.76 64.19 65.97 65.79 66.68 65.92 65.38 64.71 62.55 62.20 61.98 60.93 59.09 58.28 59.29 56.87 47.64 47.17 45.65 45.89 47.68 56.45 56.15 49.14 46.03 45.48 45.83 47.73
63.02 65.31 65.01 64.52 64.62 64.64 64.69 65.05 65.78 66.67 66.31 64.84 65.84 64.34 63.27 63.29 63.08 64.00 63.88 62.72 61.24 58.24 53.64 46.01 44.08 43.77 44.29 46.35 46.96 44.31 44.00 45.26 45.84
MSLP
1003.62 1003.81 1004.83 1004.95 1005.37 1006.28 1007.08 1008.15 1008.62 1009.51 1010.91 1012.22 1012.80 1013.23 1013.59 1013.94 1014.32 1014.26 1014.50 1014.50 1014.78 1015.21 1015.13 1013.96 1014.48 1015.03 1014.94 1015.25 1015.34 1015.47 1015.62 1015.71 1015.61
1003.48 1003.98 1004.16 1005.03 1005.14 1005.72 1006.36 1007.43 1008.10 1008.95 1010.11 1011.48 1012.12 1012.58 1013.16 1013.52 1013.83 1014.02 1013.75 1013.86 1014.64 1015.24 1014.27 1015.26 1014.17 1014.77 1015.04 1015.03 1015.11 1015.25 1015.54 1015.59 1015.72
1003.18 1004.02 1004.57 1004.73 1005.10 1005.72 1006.09 1006.90 1007.67 1008.57 1009.66 1010.61 1011.32 1011.82 1012.46 1012.92 1013.56 1013.60 1013.73 1013.73 1014.17 1014.07 1014.34 1014.25 1014.57 1014.72 1014.91 1015.22 1015.16 1015.30 1015.60 1015.56 1015.56
1003.18 1003.92 1004.36 1004.83 1005.13 1005.39 1005.95 1006.35 1007.25 1008.07 1009.04 1009.74 1010.63 1011.07 1011.49 1012.09 1012.49 1012.90 1013.36 1013.53 1013.90 1014.24 1014.23 1014.44 1014.61 1014.82 1015.06 1015.26 1015.12 1015.22 1015.44 1015.59 1015.49
1003.68 1004.17 1004.52 1004.95 1005.20 1005.50 1005.96 1006.14 1006.93 1007.57 1008.41 1009.12 1009.69 1010.14 1010.90 1011.47 1012.01 1012.37 1012.62 1013.06 1013.30 1013.78 1014.13 1014.36 1014.58 1014.79 1014.99 1015.00 1015.06 1015.09 1015.26 1015.21 1014.89
1004.05 1004.50 1004.78 1004.87 1005.22 1005.61 1005.97 1006.19 1006.92 1007.79 1008.62 1009.12 1009.11 1009.38 1010.09 1010.69 1011.39 1011.83 1012.10 1012.46 1012.95 1013.18 1013.74 1014.04 1014.20 1014.42 1014.67 1014.98 1014.90 1014.90 1014.99 1015.13 1014.99
1004.25 1004.63 1004.92 1005.21 1005.54 1005.73 1006.11 1006.49 1006.98 1008.00 1008.72 1009.07 1009.17 1009.08 1009.41 1010.02 1010.75 1011.17 1011.61 1011.94 1012.50 1012.90 1013.17 1013.58 1013.84 1013.98 1014.27 1014.54 1014.62 1014.75 1014.82 1014.94 1014.98
1004.56 1004.81 1004.93 1005.30 1005.68 1005.75 1006.40 1006.69 1007.10 1008.01 1008.65 1009.08 1009.15 1009.20 1009.27 1009.81 1010.41 1010.81 1011.15 1011.56 1012.00 1012.52 1012.81 1013.13 1013.53 1013.86 1014.09 1014.29 1014.43 1014.38 1014.60 1014.99 1015.18
1004.50 1004.85 1005.16 1005.51 1006.01 1006.47 1006.87 1006.95 1007.24 1007.86 1008.40 1009.12 1009.57 1009.64 1009.51 1009.96 1010.23 1010.57 1010.94 1011.34 1011.84 1012.42 1012.85 1013.16 1013.53 1013.69 1013.99 1014.07 1014.02 1014.74 1014.89 1015.27 1015.09
1004.46 1004.89 1005.43 1005.80 1006.49 1007.29 1007.42 1007.53 1007.84 1007.81 1008.17 1008.75 1009.26 1009.73 1009.73 1009.97 1010.10 1010.40 1010.59 1011.15 1011.63 1011.93 1012.41 1012.57 1012.78 1013.25 1013.57 1013.94 1014.37 1015.27 1015.23 1015.52 1015.47
1004.51 1005.25 1006.10 1006.53 1006.96 1007.39 1007.79 1007.78 1007.93 1008.06 1008.46 1008.86 1009.31 1009.46 1009.71 1010.03 1010.17 1010.37 1010.76 1011.33 1011.70 1012.04 1012.40 1012.69 1012.83 1013.18 1013.47 1014.01 1015.34 1015.65 1015.57 1015.86 1015.54
1005.26 1006.08 1007.22 1007.26 1007.52 1007.70 1007.78 1008.25 1008.63 1008.75 1009.03 1009.26 1009.58 1009.79 1009.86 1010.17 1010.22 1010.61 1011.03 1011.58 1011.95 1012.22 1012.59 1013.22 1013.51 1013.84 1013.93 1014.58 1015.45 1015.94 1016.29 1015.87 1015.49
1006.47 1006.66 1007.23 1007.59 1007.89 1008.05 1008.84 1009.19 1008.97 1009.67 1009.81 1009.99 1010.37 1010.60 1010.56 1010.65 1010.55 1010.77 1011.12 1011.75 1012.27 1012.96 1013.66 1014.23 1014.76 1015.02 1015.34 1015.55 1015.93 1016.25 1016.30 1016.15 1015.75
1008.02 1007.92 1008.22 1008.55 1008.60 1008.81 1009.48 1010.23 1010.32 1010.74 1011.09 1011.25 1011.24 1011.28 1011.29 1011.11 1011.34 1011.09 1011.43 1012.49 1013.19 1013.56 1014.43 1015.08 1015.52 1015.80 1016.21 1016.54 1016.77 1016.73 1016.59 1016.62 1016.39
1008.47 1008.38 1008.68 1009.03 1009.31 1009.64 1010.11 1010.65 1011.05 1011.32 1011.69 1011.93 1011.85 1011.95 1011.86 1011.70 1011.49 1011.79 1012.41 1013.04 1013.87 1014.41 1014.99 1015.66 1016.06 1016.59 1016.89 1017.12 1017.34 1017.11 1017.05 1017.09 1017.13
1008.43 1008.88 1009.37 1009.58 1009.86 1010.17 1010.48 1010.99 1011.65 1011.90 1012.20 1012.40 1012.45 1012.64 1012.41 1012.47 1012.60 1012.62 1013.21 1013.71 1014.21 1014.98 1015.60 1016.13 1016.41 1016.90 1016.99 1017.49 1017.83 1017.90 1017.86 1017.72 1017.83
1009.04 1009.39 1009.69 1010.39 1010.73 1010.87 1011.18 1011.55 1011.82 1012.25 1012.40 1012.92 1012.95 1013.16 1012.93 1013.35 1013.33 1013.82 1014.18 1014.47 1015.13 1015.37 1016.28 1016.54 1016.84 1017.09 1017.46 1017.59 1018.07 1018.40 1018.62 1018.64 1018.62
1009.74 1010.31 1010.97 1011.25 1011.13 1011.54 1011.88 1012.08 1012.06 1012.30 1012.64 1012.59 1013.30 1013.66 1013.81 1013.92 1014.06 1014.50 1015.21 1016.08 1016.39 1016.52 1016.99 1016.87 1016.68 1016.75 1016.94 1017.49 1018.21 1018.83 1018.93 1018.80 1018.51
1009.94 1010.10 1010.80 1010.81 1010.94 1011.38 1012.23 1012.35 1012.39 1012.48 1012.98 1013.15 1013.21 1013.69 1013.89 1014.00 1014.51 1015.10 1015.54 1016.11 1016.58 1017.19 1017.36 1017.05 1016.69 1016.78 1017.39 1018.02 1018.42 1018.77 1018.64 1018.38 1018.40
1010.04 1010.36 1010.71 1011.19 1011.43 1012.04 1012.17 1012.31 1012.41 1012.45 1012.87 1013.09 1013.03 1013.22 1013.56 1013.69 1013.85 1014.17 1014.57 1015.27 1015.99 1016.63 1017.60 1017.61 1017.83 1017.90 1018.25 1018.41 1018.72 1018.73 1018.68 1018.73 1018.64
Wind_Speed
3 10 14 14 18 15 12 12 14 16 17 15 15 15 13 11 12 9 8 8 3 9 7 4 12 7 7 5 4 5 2 6 5
6 4 9 13 13 14 16 16 16 15 16 16 16 16 12 12 11 12 10 4 7 15 5 5 8 6 5 5 6 5 2 5 4
7 6 4 7 12 13 13 16 16 17 14 17 16 16 14 13 11 12 10 6 6 6 2 3 5 7 7 7 5 6 5 6 6
5 1 3 4 6 9 13 14 16 16 17 17 17 16 14 13 12 13 12 10 9 9 6 5 4 5 5 6 7 6 5 8 6
2 2 3 2 6 7 10 14 15 14 14 15 16 15 13 14 13 12 13 12 11 10 9 8 8 7 7 7 5 6 7 9 2
4 3 5 4 4 6 8 12 10 10 12 13 13 16 17 15 14 13 13 13 11 11 10 9 10 9 8 9 8 6 6 7 7
5 5 5 5 4 5 7 9 11 11 13 12 10 12 15 14 14 13 13 11 10 11 10 11 10 9 8 9 7 7 8 9 7
8 7 5 5 5 4 5 8 9 10 11 5 10 10 10 11 10 12 11 11 11 9 10 8 7 7 9 9 8 8 7 5 6
10 7 4 5 1 3 4 4 6 7 13 13 6 11 10 12 9 11 11 11 11 12 9 9 9 10 10 10 9 10 8 2 7
7 6 4 3 3 4 5 7 5 7 10 10 13 11 9 10 12 11 10 11 10 11 10 10 10 9 9 9 4 4 5 1 8
3 6 5 4 3 4 3 4 6 5 6 9 10 12 12 11 10 8 9 10 11 9 8 8 5 6 7 6 5 4 4 7 10
2 9 5 4 5 4 1 2 3 4 4 5 7 7 8 8 9 6 7 9 7 6 6 3 3 2 1 6 6 7 5 4 3
3 7 6 6 6 5 8 7 2 3 2 4 4 2 1 1 2 3 9 9 8 6 7 6 5 8 7 8 6 7 7 7 0
6 6 10 8 8 11 10 9 9 11 9 8 6 4 2 3 2 4 6 8 7 8 7 7 7 7 6 6 7 5 6 6 3
10 11 10 8 8 9 10 11 10 9 9 7 8 7 7 4 3 3 6 9 7 8 8 8 7 6 5 5 5 8 9 10 10
9 12 10 10 8 7 8 8 7 7 5 6 6 7 8 8 9 9 9 7 10 8 7 5 5 5 4 4 3 5 11 12 12
7 5 8 7 6 6 5 6 7 6 7 6 6 7 8 6 10 10 9 8 6 8 6 5 4 5 4 5 4 4 4 5 8
8 8 5 5 7 7 5 2 7 7 8 10 8 7 7 7 8 9 8 8 5 5 5 3 4 5 6 7 4 2 0 3 6
2 9 7 7 6 6 6 6 7 7 7 4 8 8 5 7 7 6 6 6 7 15 9 5 12 12 9 9 9 6 5 9 11
7 5 7 7 5 6 6 4 5 6 7 3 5 6 9 8 8 9 8 10 9 9 9 14 14 13 11 11 8 5 6 5 2
Wind_Direction
148 195 203 217 204 190 202 190 186 186 169 191 199 200 205 200 205 211 212 219 50 330 205 215 132 180 204 220 195 224 218 247 255
144 151 195 203 226 215 199 205 189 188 176 189 198 200 200 203 204 230 211 170 188 204 196 191 149 180 210 213 204 227 212 264 272
142 141 181 221 208 226 218 201 200 197 187 186 200 202 198 204 205 211 228 221 215 284 98 337 238 177 199 213 237 244 215 238 233
117 161 165 202 245 223 229 201 206 199 196 195 200 202 197 206 205 205 209 210 208 214 225 216 218 209 233 253 235 223 226 262 234
274 349 325 269 268 216 223 213 200 199 191 203 198 201 200 198 207 214 202 213 208 189 215 207 217 215 219 257 242 252 234 243 311
199 235 268 286 227 246 221 219 197 185 201 215 212 200 199 203 200 202 214 197 210 205 192 215 219 208 214 225 224 223 227 249 261
278 294 289 293 285 242 216 223 191 182 199 214 222 208 211 193 195 202 207 203 200 205 200 201 212 218 212 220 220 232 229 220 236
279 259 268 288 273 205 211 207 213 197 207 228 212 219 207 194 198 198 207 202 199 215 203 209 214 226 219 221 228 233 226 240 230
259 256 249 235 201 312 310 288 201 198 201 204 197 214 202 195 189 201 211 207 195 204 210 206 205 213 222 238 236 86 106 202 256
252 249 242 286 115 240 251 248 262 228 212 201 199 199 203 202 191 204 205 209 210 215 204 220 213 211 211 227 237 73 72 356 256
238 231 34 3 48 36 306 266 236 230 244 216 210 207 196 192 188 168 201 222 211 206 211 228 242 227 229 232 97 32 22 275 252
325 82 133 145 92 28 301 212 232 195 157 189 205 200 188 174 173 181 153 193 184 180 167 177 191 46 171 155 95 40 324 294 195
142 134 116 89 68 89 57 9 124 74 140 148 108 93 258 38 157 185 184 172 159 123 86 92 84 78 64 64 103 32 344 324 177
131 141 124 115 84 80 88 91 81 79 70 48 36 100 108 183 208 178 159 126 109 104 95 92 80 75 62 61 28 31 348 349 17
154 150 139 116 103 93 96 99 97 95 80 77 74 53 52 33 173 115 103 108 89 92 100 104 98 86 83 53 37 40 50 60 62
166 140 123 97 98 102 110 109 86 95 69 90 66 69 57 53 70 81 71 93 105 96 94 93 105 107 102 91 59 56 58 75 79
152 130 119 108 86 87 108 131 115 112 105 94 84 78 68 73 80 79 74 78 82 91 94 96 99 105 106 101 97 95 97 101 105
144 117 112 125 132 97 74 134 102 120 120 108 107 97 89 84 77 82 79 60 36 76 36 12 157 169 154 141 126 87 215 241 173
222 129 125 89 60 81 105 134 132 119 116 133 136 134 129 118 117 115 125 117 95 49 43 30 60 70 94 76 89 135 107 71 71
92 110 112 126 147 140 156 143 132 122 126 149 183 131 148 155 158 153 151 137 129 118 78 66 52 64 65 78 121 105 92 73 56